Tracking 30106 objects as of 23-Jan-2025
HD Live streaming from Space Station
objects crossing your sky now

STARLINK-31678

Track STARLINK-31678 now!
10-day predictions


NORAD ID: 59493
Int'l Code: 2024-071K
Perigee: 450.2 km
Apogee: 452.2 km
Inclination: 43.0 °
Period: 93.5 minutes
Semi major axis: 6822 km
RCS: Unknown
Launch date: April 13, 2024
Source: United States (US)
Launch site: AIR FORCE EASTERN TEST RANGE (AFETR)
Your satellite tracking list
Your tracking list is empty




NASA's NSSDC Master Catalog

Two Line Element Set (TLE):
1 59493U 24071K   25022.41216133 -.00001180  00000-0 -20982-4 0  9993
2 59493  43.0022 157.3375 0001445 266.1074  93.9617 15.40703029 43951
Source of the keplerian elements: AFSPC